Regional Weather Roundup
Issued by NWS Columbia, SC

Home | Current Version | Previous Version | Text Only | Print | Product List | Glossary On
Versions: 1 2 3 4 5 6 7 8 9 10 11 12 13 14 15 16 17 18 19 20 21 22 23 24 25 26 27 28 29 30 31 32 33 34 35 36 37 38 39 40 41 42 43 44 45 46 47 48 49 50
000
ASUS42 KCAE 032010
RWRCAE
REGIONAL WEATHER ROUNDUP
NATIONAL WEATHER SERVICE COLUMBIA SC
400 PM EDT FRI JUL 03 2015

NOTE: "FAIR" INDICATES FEW OR NO CLOUDS BELOW 12,000 FEET WITH NO
SIGNIFICANT WEATHER AND/OR OBSTRUCTIONS TO VISIBILITY.

NOT ALL STATIONS ARE QUALITY CONTROLLED BY THE NATIONAL
WEATHER SERVICE. USE DATA WITH CAUTION...ESPECIALLY
DEWPOINT OBSERVATIONS.

SCZ001>056-GAZ040-063>065-077-032100-
...UPSTATE SOUTH CAROLINA...

CITY           SKY/WX    TMP DP  RH WIND       PRES   REMARKS
ANDERSON       PTSUNNY   84  68  58 W14G23    29.95S
SPARTANBURG    LGT RAIN  79  72  78 SW12      29.92F
CLEMSON        PTSUNNY   83  66  56 W16G25    29.96R
GREENVILLE     PTSUNNY   80  72  76 W9        29.94F
GREENWOOD      CLOUDY    77  70  79 W8G17     29.97F
GREER          CLOUDY    80  72  76 W8        29.91F
ROCK HILL      PTSUNNY   82  68  62 SW14      29.92F
CHESTER        CLOUDY    81  68  65 S5        29.93F HAZE
LAURENS        CLOUDY    79  75  89 SW10      29.93F


...CENTRAL SOUTH CAROLINA...

CITY           SKY/WX    TMP DP  RH WIND       PRES   REMARKS
COLUMBIA APT   CLOUDY    81  68  64 SW13      29.94F
COLUMBIA OWENS CLOUDY    83  69  62 SW13G22   29.95F
DARLINGTON     CLOUDY    82  70  65 SW14      29.93S
FLORENCE       PTSUNNY   85  72  65 SW12      29.92F
MCENTIRE ANGB  CLOUDY    82  69  65 W12       29.95F
ORANGEBURG     CLOUDY    75  69  81 SW9       29.97F
SUMTER SHAW    CLOUDY    82  69  64 W14       29.92F
NEWBERRY       CLOUDY    73  68  83 SW9G17    29.96F
BARNWELL       FAIR      79  72  78 SW8       29.99F
MANNING        LGT RAIN  77  70  78 SW10      29.96S
CAMDEN         FAIR      84  68  58 SW13G21   29.93F
LANCASTER      MOCLDY    81  72  74 SW13G20   29.92F
WINNSBORO      CLOUDY    77  70  78 SW9       29.94F


...EASTERN AND COASTAL SOUTH CAROLINA...

CITY           SKY/WX    TMP DP  RH WIND       PRES   REMARKS
MYRTLE BEACH   TSTM      82  75  78 S16       29.95F
N MYRTLE BCH   MOSUNNY   84  75  74 SW20      29.94F
CONWAY         MOCLDY    88  73  62 SW12      29.92F HX  96
MARION         MOCLDY    86  73  66 SW7       29.93F
HARTSVILLE     FAIR      82  68  61 W12G17    29.93S
FLORENCE       PTSUNNY   85  72  65 SW12      29.92F
DARLINGTON     CLOUDY    82  70  65 SW14      29.93S
CHARLESTON APT TSTM      72  69  90 W6        30.01S
MOUNT PLEASANT RAIN      72  70  94 SW9       30.02F
WALTERBORO     LGT RAIN  72  70  94 W7        29.99F
BEAUFORT       PTSUNNY   81  70  69 W9G18     30.00F


...EASTERN GEORGIA...

CITY           SKY/WX    TMP DP  RH WIND       PRES   REMARKS
AUGUSTA BUSH F CLOUDY    78  70  76 SW8       29.97F
AUGUSTA DANIEL CLOUDY    79  70  74 VRB7      29.99F
THOMSON        CLOUDY    77  74  90 SW6       30.04R
WASHINGTON     FAIR      81  77  89 W7        29.99S
CLAXTON        FAIR      91  70  49 W9        30.00F HX  97
SYLVANIA       LGT RAIN  81  72  72 W7        30.01F
SAVANNAH       PTSUNNY   93  64  38 W20G28    30.00S


...SOUTHERN NORTH CAROLINA...

CITY           SKY/WX    TMP DP  RH WIND       PRES   REMARKS
CHARLOTTE      PTSUNNY   86  66  51 SW10G21   29.90F
MONROE         PTSUNNY   87  68  52 SW21G26   29.89F
WADESBORO      CLOUDY    86  69  57 SW3       29.88F
ROCKINGHAM     CLOUDY    76  73  88 SW6       29.91F
ASHEVILLE      CLOUDY    77  67  71 S7        29.97S

$$


USA.gov is the U.S. government's official web portal to all federal, state and local government web resources and services.